| time (UTC) | temp C | wind direction | speed KPH | gust KPH | rain 1hr cm | rain 24hr cm | rain mn cm | humidity % | barometer mb |
| 20260505121539 | 13 | 117 | 1.6 | 4.8 | 0.00 | 0.00 | 0.00 | 79 | 1015.9 |
| 20260505120519 | 12 | 116 | 1.6 | 4.8 | 0.00 | 0.00 | 0.00 | 82 | 1015.9 |
| 20260505115539 | 11 | 92 | 0.0 | 3.2 | 0.00 | 0.00 | 0.00 | 83 | 1015.7 |
| 20260505114529 | 10 | 101 | 1.6 | 1.6 | 0.00 | 0.00 | 0.00 | 83 | 1015.6 |
| 20260505113549 | 10 | 98 | 0.0 | 1.6 | 0.00 | 0.00 | 0.00 | 84 | 1015.5 |
| 20260505112609 | 9 | 91 | 0.0 | 0.0 | 0.00 | 0.00 | 0.00 | 83 | 1015.4 |
| 20260505111630 | 8 | 33 | 0.0 | 1.6 | 0.00 | 0.00 | 0.00 | 82 | 1015.3 |
| 20260505110630 | 8 | 82 | 0.0 | 0.0 | 0.00 | 0.00 | 0.00 | 82 | 1015.3 |
| 20260505101530 | 8 | 90 | 0.0 | 1.6 | 0.00 | 0.00 | 0.00 | 79 | 1014.9 |
| 20260505100530 | 8 | 0.0 | 0.0 | 0.00 | 0.00 | 0.00 | 79 | 1015.0 | |
| 20260505095530 | 9 | 48 | 0.0 | 1.6 | 0.00 | 0.00 | 0.00 | 79 | 1014.9 |
| 20260505094551 | 9 | 0.0 | 0.0 | 0.00 | 0.00 | 0.00 | 78 | 1015.0 | |
| 20260505093530 | 9 | 106 | 0.0 | 1.6 | 0.00 | 0.00 | 0.00 | 78 | 1014.9 |
| 20260505092611 | 10 | 0.0 | 0.0 | 0.00 | 0.00 | 0.00 | 77 | 1014.9 | |
| 20260505091612 | 10 | 102 | 0.0 | 1.6 | 0.00 | 0.00 | 0.00 | 77 | 1014.7 |
| 20260505090551 | 10 | 100 | 0.0 | 1.6 | 0.00 | 0.00 | 0.00 | 76 | 1014.5 |
| 20260505085552 | 10 | 127 | 0.0 | 1.6 | 0.00 | 0.00 | 0.00 | 76 | 1014.4 |
| 20260505084531 | 10 | 128 | 0.0 | 1.6 | 0.00 | 0.00 | 0.00 | 75 | 1014.3 |
| 20260505083552 | 10 | 88 | 0.0 | 1.6 | 0.00 | 0.00 | 0.00 | 74 | 1014.3 |
| 20260505082517 | 10 | 114 | 0.0 | 1.6 | 0.00 | 0.00 | 0.00 | 73 | 1014.3 |
| 20260505081617 | 10 | 94 | 0.0 | 1.6 | 0.00 | 0.00 | 0.00 | 72 | 1014.3 |
| 20260505080552 | 11 | 116 | 0.0 | 1.6 | 0.00 | 0.00 | 0.00 | 71 | 1014.2 |
| 20260505075532 | 11 | 89 | 0.0 | 1.6 | 0.00 | 0.00 | 0.00 | 70 | 1014.1 |
| 20260505074533 | 11 | 93 | 0.0 | 1.6 | 0.00 | 0.00 | 0.00 | 69 | 1013.9 |
| 20260505073558 | 11 | 136 | 0.0 | 1.6 | 0.00 | 0.00 | 0.00 | 69 | 1013.9 |
| 20260505072518 | 12 | 140 | 0.0 | 1.6 | 0.00 | 0.00 | 0.00 | 68 | 1013.9 |
| 20260505071518 | 12 | 120 | 0.0 | 1.6 | 0.00 | 0.00 | 0.00 | 67 | 1013.9 |
| 20260505070536 | 12 | 102 | 0.0 | 1.6 | 0.00 | 0.00 | 0.00 | 66 | 1013.8 |
| 20260505065517 | 12 | 107 | 0.0 | 1.6 | 0.00 | 0.00 | 0.00 | 65 | 1013.8 |
| 20260505064537 | 12 | 114 | 1.6 | 3.2 | 0.00 | 0.00 | 0.00 | 65 | 1013.8 |
| 20260505063537 | 12 | 103 | 1.6 | 1.6 | 0.00 | 0.00 | 0.00 | 64 | 1013.7 |
| 20260505062540 | 13 | 98 | 1.6 | 3.2 | 0.00 | 0.00 | 0.00 | 63 | 1013.8 |
| 20260505061539 | 12 | 113 | 1.6 | 3.2 | 0.00 | 0.00 | 0.00 | 63 | 1013.8 |
| 20260505060519 | 12 | 107 | 0.0 | 3.2 | 0.00 | 0.00 | 0.00 | 64 | 1013.8 |
| 20260505055518 | 12 | 121 | 0.0 | 1.6 | 0.00 | 0.00 | 0.00 | 64 | 1013.8 |
| 20260505054518 | 12 | 92 | 1.6 | 4.8 | 0.00 | 0.00 | 0.00 | 63 | 1013.8 |
| 20260505053520 | 13 | 90 | 0.0 | 1.6 | 0.00 | 0.00 | 0.00 | 62 | 1013.8 |
| 20260505052538 | 13 | 115 | 1.6 | 3.2 | 0.00 | 0.00 | 0.00 | 61 | 1013.8 |
| 20260505051601 | 13 | 111 | 0.0 | 1.6 | 0.00 | 0.00 | 0.00 | 61 | 1013.8 |
| 20260505050519 | 13 | 0.0 | 0.0 | 0.00 | 0.00 | 0.00 | 60 | 1013.8 | |
| 20260505041640 | 15 | 117 | 1.6 | 3.2 | 0.00 | 0.00 | 0.00 | 57 | 1013.6 |
| 20260505040520 | 15 | 111 | 1.6 | 3.2 | 0.00 | 0.00 | 0.00 | 58 | 1013.6 |
| 20260505035520 | 15 | 119 | 1.6 | 3.2 | 0.00 | 0.00 | 0.00 | 58 | 1013.5 |
| 20260505034540 | 15 | 106 | 1.6 | 3.2 | 0.00 | 0.00 | 0.00 | 59 | 1013.6 |
| 20260505033520 | 15 | 104 | 1.6 | 4.8 | 0.00 | 0.00 | 0.00 | 61 | 1013.5 |
| 20260505032540 | 14 | 114 | 1.6 | 3.2 | 0.00 | 0.00 | 0.00 | 62 | 1013.6 |
| 20260505031521 | 15 | 122 | 1.6 | 1.6 | 0.00 | 0.00 | 0.00 | 62 | 1013.6 |
| 20260505030601 | 15 | 111 | 0.0 | 1.6 | 0.00 | 0.00 | 0.00 | 61 | 1013.5 |
| 20260505025521 | 15 | 131 | 1.6 | 1.6 | 0.00 | 0.00 | 0.00 | 61 | 1013.5 |
| 20260505024521 | 15 | 129 | 0.0 | 1.6 | 0.00 | 0.00 | 0.00 | 60 | 1013.5 |
| 20260505023542 | 15 | 86 | 0.0 | 0.0 | 0.00 | 0.00 | 0.00 | 60 | 1013.5 |
| 20260505022602 | 15 | 88 | 1.6 | 3.2 | 0.00 | 0.00 | 0.00 | 60 | 1013.5 |
| 20260505021522 | 15 | 108 | 0.0 | 1.6 | 0.00 | 0.00 | 0.00 | 60 | 1013.5 |
| 20260505020621 | 16 | 121 | 0.0 | 1.6 | 0.00 | 0.00 | 0.00 | 60 | 1013.5 |
| 20260505015518 | 16 | 117 | 0.0 | 1.6 | 0.00 | 0.00 | 0.00 | 59 | 1013.5 |
| 20260505014518 | 16 | 109 | 0.0 | 1.6 | 0.00 | 0.00 | 0.00 | 58 | 1013.5 |
| 20260505013519 | 16 | 127 | 0.0 | 1.6 | 0.00 | 0.00 | 0.00 | 58 | 1013.4 |
| 20260505012518 | 16 | 122 | 0.0 | 1.6 | 0.00 | 0.00 | 0.00 | 57 | 1013.2 |
| 20260505011542 | 17 | 120 | 0.0 | 3.2 | 0.00 | 0.00 | 0.00 | 56 | 1013.1 |
| 20260505010539 | 17 | 142 | 0.0 | 1.6 | 0.00 | 0.00 | 0.00 | 55 | 1013.0 |
| 20260505005619 | 17 | 125 | 0.0 | 1.6 | 0.00 | 0.00 | 0.00 | 54 | 1012.8 |
| 20260505004519 | 18 | 132 | 0.0 | 1.6 | 0.00 | 0.00 | 0.00 | 52 | 1012.7 |
| 20260505003559 | 18 | 129 | 0.0 | 1.6 | 0.00 | 0.00 | 0.00 | 51 | 1012.7 |
| 20260505002540 | 19 | 136 | 0.0 | 1.6 | 0.00 | 0.00 | 0.00 | 49 | 1012.7 |
| 20260505001600 | 20 | 139 | 0.0 | 3.2 | 0.00 | 0.00 | 0.00 | 48 | 1012.7 |
| 20260505000520 | 21 | 131 | 0.0 | 3.2 | 0.00 | 0.00 | 0.00 | 46 | 1012.6 |
| 20260504235600 | 21 | 131 | 0.0 | 3.2 | 0.00 | 0.00 | 0.00 | 45 | 1012.5 |
| 20260504234537 | 22 | 149 | 0.0 | 3.2 | 0.00 | 0.00 | 0.00 | 43 | 1012.4 |
| 20260504233517 | 22 | 112 | 0.0 | 1.6 | 0.00 | 0.00 | 0.00 | 41 | 1012.3 |
| 20260504232540 | 23 | 105 | 1.6 | 3.2 | 0.00 | 0.00 | 0.00 | 40 | 1012.3 |
| 20260504231518 | 23 | 96 | 1.6 | 3.2 | 0.00 | 0.00 | 0.00 | 39 | 1012.2 |
| 20260504230518 | 25 | 103 | 1.6 | 4.8 | 0.00 | 0.00 | 0.00 | 38 | 1012.2 |
| 20260504225518 | 25 | 84 | 3.2 | 6.4 | 0.00 | 0.00 | 0.00 | 37 | 1012.2 |
| 20260504224518 | 24 | 123 | 1.6 | 6.4 | 0.00 | 0.00 | 0.00 | 38 | 1012.2 |
| 20260504223519 | 24 | 103 | 1.6 | 6.4 | 0.00 | 0.00 | 0.00 | 39 | 1012.3 |
| 20260504222519 | 25 | 42 | 1.6 | 3.2 | 0.00 | 0.00 | 0.00 | 38 | 1012.4 |
| 20260504221619 | 25 | 94 | 0.0 | 3.2 | 0.00 | 0.00 | 0.00 | 38 | 1012.4 |
| 20260504220539 | 25 | 106 | 1.6 | 4.8 | 0.00 | 0.00 | 0.00 | 37 | 1012.4 |
| 20260504215516 | 25 | 126 | 1.6 | 4.8 | 0.00 | 0.00 | 0.00 | 37 | 1012.4 |
| 20260504214519 | 25 | 254 | 1.6 | 6.4 | 0.00 | 0.00 | 0.00 | 37 | 1012.4 |
| 20260504213604 | 26 | 19 | 3.2 | 9.7 | 0.00 | 0.00 | 0.00 | 35 | 1012.4 |
| 20260504212620 | 26 | 110 | 3.2 | 6.4 | 0.00 | 0.00 | 0.00 | 35 | 1012.3 |
| 20260504211520 | 25 | 108 | 3.2 | 9.7 | 0.00 | 0.00 | 0.00 | 36 | 1012.3 |
| 20260504210557 | 25 | 288 | 4.8 | 12.9 | 0.00 | 0.00 | 0.00 | 37 | 1012.4 |
| 20260504205541 | 25 | 51 | 3.2 | 11.3 | 0.00 | 0.00 | 0.00 | 37 | 1012.4 |
| 20260504204517 | 25 | 299 | 3.2 | 8.0 | 0.00 | 0.00 | 0.00 | 36 | 1012.4 |
| 20260504203618 | 26 | 102 | 4.8 | 11.3 | 0.00 | 0.00 | 0.00 | 35 | 1012.4 |
| 20260504202538 | 26 | 57 | 3.2 | 14.5 | 0.00 | 0.00 | 0.00 | 36 | 1012.5 |
| 20260504201521 | 25 | 90 | 3.2 | 9.7 | 0.00 | 0.00 | 0.00 | 37 | 1012.6 |
| 20260504200538 | 26 | 102 | 1.6 | 6.4 | 0.00 | 0.00 | 0.00 | 35 | 1012.8 |
| 20260504194519 | 25 | 126 | 3.2 | 8.0 | 0.00 | 0.00 | 0.00 | 37 | 1013.0 |
| 20260504193620 | 24 | 92 | 1.6 | 6.4 | 0.00 | 0.00 | 0.00 | 36 | 1013.2 |
| 20260504192519 | 25 | 105 | 3.2 | 9.7 | 0.00 | 0.00 | 0.00 | 36 | 1013.4 |
| 20260504191519 | 25 | 300 | 4.8 | 14.5 | 0.00 | 0.00 | 0.00 | 36 | 1013.5 |
| 20260504190539 | 25 | 101 | 3.2 | 9.7 | 0.00 | 0.00 | 0.00 | 35 | 1013.8 |
| 20260504185519 | 25 | 244 | 3.2 | 6.4 | 0.00 | 0.00 | 0.00 | 36 | 1013.8 |
| 20260504184516 | 24 | 90 | 3.2 | 8.0 | 0.00 | 0.00 | 0.00 | 36 | 1013.9 |
| 20260504183617 | 24 | 295 | 3.2 | 11.3 | 0.00 | 0.00 | 0.00 | 37 | 1014.0 |
| 20260504182520 | 23 | 298 | 4.8 | 12.9 | 0.00 | 0.00 | 0.00 | 37 | 1014.2 |
| 20260504181517 | 23 | 305 | 4.8 | 11.3 | 0.00 | 0.00 | 0.00 | 37 | 1014.2 |
| 20260504180618 | 23 | 297 | 4.8 | 12.9 | 0.00 | 0.00 | 0.00 | 37 | 1014.2 |
| 20260504175520 | 23 | 58 | 1.6 | 8.0 | 0.00 | 0.00 | 0.00 | 36 | 1014.3 |
| 20260504174520 | 23 | 319 | 3.2 | 6.4 | 0.00 | 0.00 | 0.00 | 36 | 1014.4 |
| 20260504173538 | 23 | 229 | 3.2 | 11.3 | 0.00 | 0.00 | 0.00 | 37 | 1014.5 |
| 20260504172538 | 22 | 336 | 1.6 | 8.0 | 0.00 | 0.00 | 0.00 | 37 | 1014.6 |
| 20260504171518 | 22 | 337 | 4.8 | 11.3 | 0.00 | 0.00 | 0.00 | 37 | 1014.7 |
| 20260504170521 | 22 | 54 | 3.2 | 12.9 | 0.00 | 0.00 | 0.00 | 37 | 1014.8 |
| 20260504150537 | 20 | 88 | 3.2 | 8.0 | 0.00 | 0.00 | 0.00 | 41 | 1016.1 |
| 20260504140639 | 18 | 138 | 1.6 | 4.8 | 0.00 | 0.00 | 0.00 | 48 | 1016.3 |
| 20260504130519 | 14 | 118 | 1.6 | 4.8 | 0.00 | 0.00 | 0.00 | 65 | 1016.4 |